Regional Weather Roundup
Issued by NWS Kansas City/Pleasant Hill, MO

Home | Current Version | Previous Version | Text Only | Print | Product List | Glossary On
Versions: 1 2 3 4 5 6 7 8 9 10 11 12 13 14 15 16 17 18 19 20 21 22 23 24 25 26 27 28 29 30 31 32 33 34 35 36 37 38 39 40 41 42 43 44 45 46 47 48 49 50
000
ASUS43 KEAX 010110
RWREAX

WEATHER ROUNDUP FOR EASTERN KANSAS AND NORTHWEST MISSOURI
NATIONAL WEATHER SERVICE KANSAS CITY/PLEASANT HILL MO
800 PM CDT THU JUL 31 2014

KSZ040-057-103>105-MOZ028-029-037-043-010200-
...KANSAS CITY METROPOLITAN AREA...

CITY           SKY/WX    TMP DP  RH WIND       PRES   REMARKS
K.C. INTL      MOCLDY    77  57  50 E6        30.04F
K.C. DOWNTOWN  PTCLDY    80  56  43 E8        30.02F
LEES SUMMIT    CLEAR     74  59  59 E6        30.04F
OLATHE - IXD   CLEAR     79  57  46 SE6       30.05S
OLATHE - OJC   CLEAR     77  57  50 SE6       30.04S
LAWRENCE       CLEAR     80  64  58 NE3       30.03F HAZE

$$

MOZ001>008-011>017-020>025-030>033-038>040-044>046-053-054-010200-
...NORTHERN AND CENTRAL MISSOURI...

CITY           SKY/WX    TMP DP  RH WIND       PRES   REMARKS
ST. JOSEPH     MOCLDY    76  59  55 SE3       30.04S
MOSBY          PTCLDY    77  59  53 CALM      30.04S
WHITEMAN AFB   NOT AVBL
CLINTON        CLEAR     75  64  69 CALM      30.04S
SEDALIA        CLEAR     74  61  63 N6        30.05S
WARSAW         NOT AVBL
MARSHALL       CLEAR     77  61  57 CALM      30.05S
CHILLICOTHE      N/A     77  59  53 CALM      30.05S
MOBERLY        CLEAR     75  61  60 CALM      30.05F
KIRKSVILLE     CLEAR     73  65  75 CALM      30.06S

$$

MOZ041-047>049-056>058-063>065-088>090-097-010200-
...EASTERN AND SOUTHERN MISSOURI...

CITY           SKY/WX    TMP DP  RH WIND       PRES   REMARKS
ST. LOUIS INTL PTCLDY    80  59  48 E7        30.05R
SPIRIT OF STL  PTCLDY    80  57  45 E6        30.03R
COLUMBIA       CLEAR     76  59  55 NE6       30.05S
JEFFERSON CITY CLEAR     81  56  42 N5        30.02S
MEXICO         CLEAR     75  64  69 NE3       30.06R
HANNIBAL       CLEAR     73  64  73 CALM      30.06S
ROLLA          CLEAR     76  54  46 E3        30.04R
LEBANON        PTCLDY    75  61  60 S5        30.06R
OSAGE BEACH      N/A     75  57  53 N3        30.03S
SPRINGFIELD    PTCLDY    74  65  73 S6        30.06R
BRANSON        MOCLDY    72  64  78 SE5       30.08S
NEVADA         CLEAR     75  63  64 CALM      30.05R
JOPLIN         MOCLDY    77  63  61 SE7       30.05R
WEST PLAINS    PTCLDY    71  65  81 S3        30.08S
MALDEN         MOCLDY    73  64  73 CALM      30.06S

$$

IAZ060-094-KSZ022-034>040-054-083-096-NEZ052-066-093-010200-
...KANSAS...SOUTHEAST NEBRASKA AND IOWA...

CITY           SKY/WX    TMP DP  RH WIND       PRES   REMARKS
TOPEKA         CLEAR     81  57  43 E5        30.02F
MANHATTAN      CLEAR     81  58  45 SW3       30.01F
EMPORIA        CLEAR     77  58  51 SE5       30.05S
CHANUTE        CLEAR     78  62  57 CALM      30.05S
WICHITA        CLEAR     80  53  39 NE5       30.04F
OMAHA          MOCLDY    78  59  51 E10       30.00F
LINCOLN        MOCLDY    83  55  38 SE13      29.99F
FALLS CITY     MOCLDY    74  58  57 SE7       30.02S
LAMONI         CLEAR     77  54  44 CALM      30.05F
DES MOINES     CLOUDY    71  65  81 W5        30.04S

$$




USA.gov is the U.S. government's official web portal to all federal, state and local government web resources and services.